GEFSSE_500_meanwind_054.txt.gz
Wind_Speed
12 13 13 13 13 14 15 15 15 15 14 13 12 11 10 9 8 7 6 5 5 4 5 5 7 7 8 10 12 13 14 16 16 14 12 10 9 8 8 8 8 9 9
10 11 11 11 12 12 13 13 14 14 14 14 13 12 11 10 9 8 7 6 5 4 4 4 4 5 6 8 10 11 12 14 15 14 14 12 11 10 10 10 10 10 10
9 9 10 10 10 10 11 11 12 12 13 13 13 13 12 11 10 9 8 7 5 5 4 3 4 4 4 5 7 8 10 12 13 13 13 13 12 11 11 11 10 10 11
8 8 8 8 8 8 9 9 10 10 11 11 12 12 12 12 11 10 9 8 6 5 4 3 3 3 3 3 4 5 6 8 9 11 12 13 12 12 11 11 10 10 10
8 8 7 7 6 6 7 7 7 8 9 9 9 10 10 11 11 11 10 9 7 6 4 3 2 2 2 2 3 4 4 5 6 7 8 10 10 9 9 9 9 8 8
7 7 7 6 6 6 5 5 6 6 6 7 7 7 8 8 9 9 9 9 8 6 5 4 3 2 2 2 2 3 3 3 4 4 5 6 6 6 6 6 6 6 6
7 7 7 7 6 6 6 5 5 5 5 5 5 5 6 6 6 7 7 8 7 7 6 4 3 2 2 2 2 3 4 4 4 4 4 4 4 4 4 4 4 4 3
7 7 7 7 8 8 7 6 6 5 4 4 4 4 4 4 4 4 5 5 6 6 5 4 3 2 1 1 2 3 3 4 4 5 5 4 4 3 2 2 3 2 2
7 8 8 8 9 9 9 8 7 6 6 5 4 3 3 2 2 2 2 2 3 3 3 3 3 2 2 1 1 2 3 3 4 5 5 5 4 3 3 2 2 1 2
8 9 10 10 10 11 11 10 10 9 8 7 6 5 4 3 3 2 2 2 1 1 1 1 1 1 2 1 1 2 3 4 4 5 6 5 4 3 3 2 2 1 1
9 10 11 12 13 13 13 13 12 12 11 11 10 9 7 6 5 5 4 4 4 3 3 2 2 1 1 1 1 2 3 4 4 5 6 6 5 4 4 3 2 2 2
11 12 13 14 15 16 16 16 15 15 14 14 13 12 11 10 8 7 7 6 6 6 6 5 4 4 2 2 1 2 3 3 4 5 6 6 6 5 5 4 3 3 2
15 15 16 17 17 18 19 19 19 18 18 17 16 15 14 13 12 10 9 9 8 8 8 8 7 6 5 4 3 3 3 3 4 5 5 6 6 6 5 5 5 4 4
19 19 20 20 21 21 22 22 22 22 21 21 20 19 17 16 15 14 13 11 10 10 9 10 9 9 8 7 6 5 5 5 5 5 5 6 6 6 6 6 6 6 5
24 23 24 25 24 24 25 26 25 24 24 24 23 23 21 20 19 17 16 14 13 12 11 11 11 11 11 10 9 8 8 7 7 7 7 7 7 7 7 7 7 7 7
28 28 28 29 29 28 28 29 29 28 27 27 26 26 25 23 22 21 19 17 15 14 14 14 13 13 13 13 12 11 10 10 9 9 9 9 9 8 8 8 8 8 9
33 33 33 33 32 32 32 32 30 31 31 31 30 29 28 26 25 24 22 21 18 16 16 16 15 15 15 15 14 13 13 12 12 12 11 11 11 11 10 10 10 10 10
38 38 38 37 37 36 36 35 35 32 33 34 34 33 32 30 29 27 26 24 21 20 19 18 18 17 17 17 16 16 16 15 15 15 14 14 14 13 13 13 12 12 12
42 43 43 43 41 41 40 38 37 37 35 35 35 36 35 33 32 31 30 27 24 23 22 21 20 19 19 18 18 18 18 18 18 18 17 17 16 16 16 16 15 15 15
45 46 46 46 45 43 43 43 41 40 39 38 37 35 36 35 33 32 31 29 27 26 25 24 22 22 21 20 20 20 20 21 21 21 21 20 20 19 19 19 18 18 17
46 46 47 48 48 48 47 46 44 44 43 42 39 37 36 34 33 32 32 30 28 28 26 24 24 23 24 23 23 22 22 22 23 23 23 23 23 22 22 22 21 21 20
44 45 45 46 48 49 49 49 48 47 47 45 43 40 37 35 35 33 32 29 28 27 27 26 25 25 25 25 24 23 23 24 24 25 25 25 25 25 25 25 24 24 23
40 40 42 43 45 46 48 48 48 48 48 46 44 42 39 35 33 31 30 29 28 27 26 27 28 26 25 26 26 26 26 26 26 26 27 27 27 27 27 27 27 26 26
36 36 37 39 41 43 44 45 45 45 45 45 45 42 40 38 36 34 32 31 31 29 27 27 27 26 26 26 26 27 28 28 28 28 28 29 28 29 29 29 29 28 28
29 31 32 35 37 39 40 41 42 42 42 42 42 41 39 38 37 36 34 31 31 30 28 27 25 25 26 26 26 27 27 28 29 30 30 30 30 30 30 31 31 31 31
23 25 26 28 30 32 33 35 36 37 38 38 38 38 37 36 36 35 34 32 31 31 30 29 28 27 27 27 27 28 29 29 30 31 32 33 32 31 31 31 32 32 32

GEFSSE_500_meanwind_060.txt.gz
Wind_Speed
6 8 8 8 8 8 8 8 8 8 7 7 6 5 4 3 3 3 3 3 4 5 6 8 9 10 12 13 14 15 14 14 14 13 12 11 9 8 8 8 8 9 9
5 5 6 6 6 6 6 6 7 7 7 7 6 6 4 3 3 2 3 3 3 4 5 6 7 9 9 10 12 14 15 15 15 14 13 13 11 9 9 8 8 9 9
4 4 4 5 5 5 5 5 5 5 6 6 6 6 5 4 3 3 3 3 3 3 4 5 6 7 7 8 9 11 13 14 15 13 13 13 11 10 9 8 8 9 9
5 4 4 4 4 4 3 3 3 4 4 5 5 5 5 5 4 3 3 3 3 3 4 4 5 5 5 6 7 8 9 11 12 13 13 13 11 10 9 8 8 8 8
6 6 5 5 4 4 3 3 2 2 2 3 3 4 4 4 4 3 3 3 2 2 3 3 4 4 5 5 6 6 7 8 9 10 10 10 10 9 9 8 8 7 7
7 8 7 7 6 6 5 5 4 3 2 2 1 2 2 2 2 3 3 2 2 2 2 2 3 3 4 4 5 5 5 5 6 6 7 8 8 8 7 6 6 6 5
8 9 9 9 9 8 8 7 6 6 5 4 3 2 2 1 1 1 1 2 2 2 2 1 2 3 3 4 4 5 5 5 5 5 5 5 5 5 5 4 4 4 3
9 10 11 11 11 11 10 10 9 8 7 7 6 5 4 3 3 2 1 1 0 0 1 1 1 1 2 3 4 4 4 5 5 4 4 4 3 2 2 2 2 1 1
10 11 13 13 13 13 13 12 12 11 10 10 9 8 7 6 5 5 4 3 3 2 1 1 0 0 1 3 3 4 4 4 4 4 5 4 3 2 2 2 1 0 0
13 13 14 15 15 15 15 15 15 14 13 13 12 11 11 9 8 8 7 6 6 5 4 3 2 1 1 2 3 3 4 4 4 5 5 5 4 3 2 2 1 1 0
15 15 15 16 16 17 17 17 17 17 16 16 15 15 14 13 11 11 10 9 9 8 7 6 4 4 3 2 2 3 3 3 4 4 5 5 5 4 3 2 2 1 1
18 18 18 18 19 19 19 20 19 19 19 19 18 18 17 16 15 14 13 12 11 10 10 9 7 6 6 5 4 3 3 3 3 4 5 5 5 5 4 3 3 2 1
22 22 22 22 22 22 21 21 22 22 23 22 22 21 20 20 18 17 16 15 14 13 12 11 11 9 8 7 6 5 5 4 4 4 5 5 5 5 5 5 4 3 3
26 26 26 26 25 24 24 24 25 26 27 27 26 25 23 22 21 19 19 18 17 16 15 14 13 12 11 9 8 8 7 6 5 5 6 6 6 6 6 6 5 5 4
30 30 30 30 30 30 29 28 28 28 29 29 28 28 28 26 25 23 22 21 20 18 17 16 15 14 13 12 11 10 9 9 7 7 7 6 6 6 6 7 6 6 6
35 35 35 35 35 35 33 33 32 32 32 31 30 29 30 29 28 27 26 24 23 21 20 20 18 17 16 15 14 13 12 11 10 9 9 8 8 8 8 8 8 8 8
39 39 40 40 40 39 38 38 37 35 35 34 32 32 31 32 31 31 29 28 26 25 23 23 21 20 19 17 16 15 14 14 13 12 12 11 10 10 9 9 9 9 9
41 42 42 43 43 43 43 42 42 41 39 37 34 34 33 32 32 31 31 30 30 28 27 25 24 22 22 20 18 18 17 16 16 15 14 14 13 13 12 11 11 11 11
42 43 44 44 45 46 46 46 46 46 44 41 39 37 37 35 33 32 32 33 33 31 29 28 27 25 23 22 21 20 19 19 18 18 17 16 16 15 15 14 14 14 14
40 41 42 44 45 45 46 46 47 48 47 45 43 42 41 39 37 34 32 34 34 33 32 31 30 29 26 24 23 22 21 21 21 21 20 19 18 18 17 18 17 17 16
37 38 39 41 43 43 44 45 46 45 45 45 44 43 42 40 39 38 35 34 34 33 33 33 32 30 29 28 26 24 23 23 23 23 23 22 21 20 20 20 19 19 19
35 36 37 38 39 40 41 43 44 45 45 45 44 44 44 42 39 38 37 34 34 34 32 32 32 32 31 30 28 26 26 25 25 25 24 24 24 23 23 23 22 22 22
32 33 33 34 35 36 37 38 39 41 42 43 43 43 43 43 40 38 36 35 34 32 31 30 30 30 31 31 29 28 28 27 27 26 25 25 26 26 25 25 24 24 24
28 28 29 29 31 32 33 34 35 36 38 39 40 41 41 41 40 40 37 35 34 34 32 30 29 29 30 31 29 29 29 29 28 26 26 26 26 26 27 27 26 26 25
23 24 25 25 26 26 27 28 29 31 34 35 37 38 38 37 37 37 36 35 34 34 33 31 30 29 30 29 29 29 28 28 28 28 28 27 27 28 29 29 28 28 27
19 19 19 19 20 21 22 23 25 26 28 30 33 34 34 34 34 33 32 33 32 32 32 31 29 29 29 29 29 30 29 28 28 29 28 28 28 28 28 28 29 29 29

GEFSSE_500_meanwind_066.txt.gz
Wind_Speed
3 4 4 5 6 6 7 7 6 6 5 5 4 3 2 1 0 1 3 5 6 8 10 11 12 14 15 16 16 15 14 14 14 13 12 11 10 9 8 8 8 8 8
1 1 2 2 3 4 4 4 4 5 4 4 4 3 3 2 1 1 1 3 5 6 8 9 11 12 14 15 16 15 15 16 15 14 13 12 11 10 9 8 9 8 8
3 2 1 1 1 1 1 2 2 2 3 3 3 3 3 2 2 2 1 2 3 4 6 7 9 10 11 12 13 14 15 15 15 15 14 13 12 11 10 9 9 8 8
4 4 4 3 3 2 2 2 1 1 1 1 2 2 2 2 2 2 2 2 2 3 4 6 7 8 9 9 10 10 11 12 13 14 14 13 12 11 10 9 8 8 7
5 6 6 6 6 5 5 4 4 3 3 2 2 2 1 2 2 2 2 2 2 2 3 4 5 6 7 7 8 8 8 9 10 11 11 11 11 11 10 9 7 7 6
6 7 8 8 8 8 8 7 7 6 6 5 4 4 3 3 2 2 2 2 2 2 3 3 4 5 6 6 6 6 6 7 8 9 9 8 9 9 9 8 6 6 5
8 9 9 10 10 10 10 10 10 9 9 8 7 7 6 5 5 4 3 3 3 3 3 3 4 5 5 5 5 6 6 6 6 7 7 7 6 6 7 7 5 4 3
9 10 10 10 11 12 12 12 12 12 12 11 10 9 9 8 7 6 5 5 4 4 4 3 4 4 5 5 5 5 5 6 6 6 5 5 5 4 4 4 3 2 1
10 11 12 12 13 14 14 15 15 15 15 14 13 12 11 10 10 9 8 7 6 5 5 4 4 4 5 5 4 4 5 6 6 5 5 4 4 4 3 4 3 2 2
13 13 14 15 16 16 17 17 18 18 17 17 16 15 14 13 13 12 11 10 9 8 7 6 6 5 5 4 4 4 5 6 6 5 5 5 5 4 4 4 4 3 3
15 16 17 17 17 18 19 20 20 20 20 20 20 19 18 16 16 15 14 13 12 11 10 9 8 7 6 6 5 5 5 6 6 5 5 6 6 5 5 4 4 4 3
19 20 20 21 21 21 21 21 22 22 22 23 22 22 21 20 19 18 17 16 15 14 12 11 10 10 9 7 7 6 6 6 7 6 6 7 6 6 6 5 5 4 4
26 25 26 25 25 25 24 24 23 23 24 24 25 24 24 23 23 21 20 19 18 17 15 14 13 12 11 10 9 8 7 8 7 7 7 7 7 7 7 7 5 5 4
30 31 31 31 30 30 29 28 27 26 26 26 26 26 26 25 25 24 24 23 22 20 19 17 16 14 13 12 11 10 10 9 9 8 8 8 7 7 7 7 7 6 5
34 34 35 35 35 35 34 33 31 30 30 29 27 27 29 28 27 26 26 26 25 24 22 20 19 17 16 15 14 13 12 12 11 10 9 9 9 8 8 8 8 7 6
36 37 38 39 39 38 38 37 37 36 34 33 32 30 30 30 29 28 27 27 27 27 26 25 22 20 19 17 16 15 14 14 14 13 12 11 10 10 9 9 8 8 8
37 38 39 40 40 40 40 40 40 39 38 37 35 34 32 31 30 28 27 26 26 27 28 27 25 23 21 20 18 17 16 16 16 16 15 13 12 11 11 10 9 9 9
37 38 38 39 39 40 40 40 41 40 39 38 37 37 35 33 32 30 29 28 27 26 28 29 28 26 24 23 21 20 19 18 18 18 17 16 14 13 13 12 11 10 10
36 36 35 35 36 37 38 39 40 40 39 39 38 38 37 36 34 32 30 29 28 27 27 28 28 29 28 27 25 23 22 21 20 20 19 18 17 16 15 14 13 13 12
33 33 34 34 34 35 36 37 38 39 39 38 38 37 37 37 36 34 32 31 30 29 29 28 27 29 30 29 29 27 24 24 22 22 21 21 20 19 18 17 16 15 15
29 29 30 31 33 33 34 35 36 37 37 38 37 37 37 37 37 36 35 34 33 31 30 29 29 29 30 30 30 29 28 27 25 24 23 23 22 21 20 19 18 17 17
26 27 27 28 29 29 30 31 33 34 35 35 36 37 37 37 37 37 37 36 35 33 31 30 29 29 30 31 31 31 30 29 28 27 26 26 25 24 22 22 21 20 19
23 23 23 24 24 25 26 27 28 29 31 32 33 34 35 36 36 36 36 36 35 35 35 33 31 30 30 30 30 30 31 31 31 30 29 28 27 26 25 24 23 23 22
19 19 19 20 20 21 22 23 25 26 28 29 30 31 32 32 33 34 34 35 36 36 35 34 33 31 32 33 32 30 31 32 33 33 31 30 29 28 27 27 26 25 24
16 16 16 17 17 18 19 19 20 21 23 25 26 28 29 30 31 31 32 34 36 36 36 35 35 33 33 33 33 32 32 32 32 33 33 33 32 31 30 29 28 27 26
16 15 15 16 16 16 15 16 16 17 18 20 22 24 26 28 29 30 31 33 35 36 36 36 37 35 35 34 34 33 33 33 33 32 33 34 34 34 32 31 29 29 28

GEFSSE_500_meanwind_072.txt.gz
Wind_Speed
3 3 3 3 4 5 6 7 8 8 8 7 6 5 5 3 2 1 2 3 4 6 7 7 8 10 11 12 13 13 13 13 13 13 13 12 12 11 10 10 10 9 9
3 3 3 3 3 3 4 4 5 6 6 5 5 5 4 4 3 1 0 2 3 5 6 7 8 9 10 11 12 13 14 13 14 14 14 13 13 12 11 10 10 10 9
3 4 4 4 4 3 3 2 3 3 4 4 3 3 3 3 3 2 1 0 2 3 4 5 6 7 8 9 11 12 13 13 14 14 15 14 13 12 11 10 9 9 9
4 5 6 5 5 4 4 3 2 2 2 2 2 2 2 2 2 2 1 1 1 2 3 4 5 6 7 7 8 9 10 12 12 13 13 13 12 12 11 10 9 8 8
6 7 7 7 7 6 6 5 4 3 3 2 2 2 1 1 1 1 1 2 2 2 2 3 4 4 5 6 7 8 9 9 10 10 10 11 11 11 11 9 8 7 7
8 9 9 8 8 9 8 8 7 7 6 5 5 4 4 3 3 2 2 2 2 2 2 3 3 3 4 5 6 7 7 8 8 8 8 8 8 8 8 8 7 7 5
10 10 9 9 10 10 10 11 11 10 9 8 8 7 6 6 5 5 4 3 3 3 3 3 3 3 4 5 5 6 7 7 7 6 6 6 6 6 6 6 6 5 4
11 12 11 10 10 11 12 12 13 12 12 12 11 10 9 9 8 7 7 6 5 4 4 3 3 3 3 4 5 5 6 6 5 5 5 5 4 4 4 4 4 4 3
13 13 13 12 12 13 14 15 15 15 15 14 14 13 13 12 11 10 9 8 7 7 6 5 4 4 4 4 5 5 5 5 4 4 4 4 3 3 2 3 3 2 2
16 16 16 15 15 14 14 15 16 16 17 17 17 17 16 15 14 13 12 11 10 9 9 7 6 6 5 5 5 5 5 4 4 4 3 3 3 2 2 2 3 2 2
20 20 20 19 19 18 18 18 18 18 18 19 19 19 19 18 18 16 15 14 13 12 11 10 9 8 7 6 6 6 5 4 4 4 3 3 3 3 3 3 3 3 2
25 25 25 24 24 24 24 23 22 21 20 21 21 21 21 20 20 20 19 18 16 15 14 13 12 11 9 9 8 7 6 6 5 5 5 4 4 3 3 4 4 3 3
29 29 30 29 28 28 28 27 26 25 24 23 23 23 23 23 23 22 21 21 20 19 17 16 15 14 12 11 10 9 8 7 7 6 6 5 5 4 4 4 4 4 3
33 33 33 33 33 32 32 31 30 30 28 27 26 25 25 24 24 24 24 23 23 22 21 19 18 17 15 14 13 12 11 9 8 8 7 7 6 6 5 5 5 5 4
36 36 36 36 36 36 36 36 35 34 33 32 31 30 27 26 25 25 25 25 25 25 25 23 21 19 19 17 16 15 14 12 11 10 9 8 8 7 7 6 6 6 5
37 36 37 37 37 37 37 37 38 38 37 36 35 34 32 30 29 27 27 26 26 28 28 27 25 23 21 21 19 18 17 15 13 12 11 10 10 9 9 8 8 7 7
35 35 35 35 35 36 37 37 37 38 38 38 37 36 36 35 33 32 30 28 28 28 28 27 26 25 24 23 23 21 19 18 16 15 14 13 12 11 11 10 9 9 8
32 33 34 34 34 35 35 35 36 36 37 38 38 37 37 37 36 35 34 32 31 29 27 27 28 27 26 26 25 24 22 21 19 18 17 15 14 13 13 12 12 11 10
30 30 31 31 32 32 32 33 33 34 34 35 36 37 38 38 37 37 36 36 34 32 29 27 27 28 27 26 26 26 25 24 22 20 19 18 16 15 15 14 14 13 12
27 26 26 27 27 28 29 29 30 31 32 33 34 35 37 38 38 38 37 38 37 35 32 30 29 28 27 26 27 27 28 27 25 23 22 21 19 18 17 17 16 15 14
23 22 22 22 23 23 24 25 26 27 29 30 32 33 36 37 38 38 38 39 39 38 36 34 31 30 29 28 28 28 28 29 29 27 25 23 22 21 20 19 19 18 17
19 19 18 18 19 20 21 22 23 24 25 27 28 30 33 35 37 38 40 40 40 40 39 37 35 33 32 30 28 28 30 29 29 29 28 27 26 25 23 22 21 20 19
18 17 17 17 17 18 18 19 19 20 21 22 24 25 28 30 33 36 39 40 41 41 41 39 37 36 34 32 31 30 28 29 30 31 30 30 29 28 26 25 24 24 22
18 17 17 16 16 16 16 17 17 18 19 20 21 22 24 26 29 32 35 38 40 41 42 42 40 38 37 35 34 32 31 29 31 31 30 31 32 32 30 28 27 27 25
18 17 17 17 16 16 15 15 15 16 17 18 19 20 22 24 26 28 31 35 38 40 42 42 42 41 39 38 37 35 34 32 32 32 31 31 32 33 33 31 30 29 28
19 18 17 17 17 16 15 15 14 14 14 15 16 17 19 21 23 25 28 31 34 38 40 41 42 43 42 41 39 37 36 35 34 34 34 33 33 33 34 33 32 31 30

GEFSSE_500_meanwind_078.txt.gz
Wind_Speed
3 3 4 4 4 5 5 6 6 7 8 8 8 8 8 8 8 9 9 9 9 9 9 9 10 11 11 11 11 11 11 11 11 11 10 10 10 10 9 9 8 8 8
5 5 5 5 5 6 6 6 7 7 7 8 8 8 8 7 7 7 8 8 9 9 9 9 9 10 10 10 11 11 11 12 12 11 11 11 10 10 10 9 8 7 7
7 7 7 7 7 7 7 7 7 7 8 8 8 8 8 7 7 7 7 7 8 8 8 8 9 9 9 10 10 10 10 11 11 11 11 10 10 10 9 8 7 7 6
8 9 9 9 9 9 9 9 9 9 8 8 8 8 8 8 8 7 7 7 7 7 7 8 8 8 8 8 8 9 9 9 9 10 10 9 9 9 9 8 7 6 5
9 10 11 11 11 11 11 10 10 10 10 10 9 9 9 9 8 8 7 7 7 7 7 7 7 7 7 7 7 7 7 7 7 8 8 8 8 8 7 7 6 5 4
10 11 13 13 13 13 13 13 12 12 12 11 11 10 10 9 9 9 8 7 7 7 6 6 7 7 7 7 7 6 6 6 6 6 6 6 6 6 6 6 6 5 3
12 13 13 13 14 15 15 15 15 15 14 14 13 12 12 11 11 10 9 9 8 7 7 7 7 7 7 7 6 6 6 5 5 5 5 5 5 5 5 5 5 5 4
15 15 14 14 14 15 16 18 17 16 16 16 15 14 14 14 13 12 12 11 10 9 8 7 7 7 7 7 6 6 6 5 5 5 5 5 4 4 4 4 4 5 4
18 18 16 15 15 16 17 18 19 18 18 18 18 17 17 17 16 15 14 14 12 11 10 9 8 8 8 7 6 6 6 5 5 5 5 4 4 4 4 4 5 5 4
21 21 21 20 19 18 18 19 21 21 20 20 20 20 19 18 18 18 17 16 15 14 12 11 10 10 9 8 7 6 6 6 5 5 5 5 4 4 5 5 5 5 5
25 26 26 25 25 24 23 22 22 22 22 21 21 21 21 20 20 20 20 19 18 16 15 14 13 12 11 10 9 8 7 6 6 6 6 6 5 5 6 6 6 6 5
30 30 31 31 30 29 28 27 26 26 25 24 23 23 23 22 22 21 21 21 21 19 18 16 15 14 13 12 12 10 9 8 8 7 7 7 7 6 6 6 6 7 6
33 34 34 33 33 33 33 32 31 30 29 28 27 25 24 24 23 23 23 23 23 22 21 19 18 17 16 14 14 13 11 10 10 9 9 8 8 7 7 7 7 7 7
35 36 36 36 36 36 35 35 35 34 33 32 31 30 29 28 26 24 25 23 24 24 23 22 21 20 18 17 16 16 14 13 11 11 10 10 10 9 9 8 8 8 7
34 35 35 35 36 37 37 37 36 37 36 36 36 34 33 32 31 28 26 26 26 27 26 24 23 23 22 20 19 18 17 15 14 13 12 12 12 11 11 10 9 9 9
30 31 32 33 34 34 35 36 37 37 38 38 38 38 37 36 35 34 32 30 29 28 29 28 27 25 24 23 22 21 20 18 17 15 15 14 14 13 13 11 11 10 10
27 28 29 29 30 31 32 33 35 36 37 38 38 39 38 38 38 37 36 35 33 31 30 30 29 28 27 26 25 24 23 22 20 19 17 17 16 15 15 14 13 12 11
24 25 25 26 26 27 28 30 31 33 34 36 37 37 38 38 39 38 38 37 36 35 33 32 31 30 29 28 28 27 26 25 24 22 20 19 18 17 16 16 15 14 13
23 23 23 24 24 24 24 25 27 28 30 32 33 35 37 38 38 39 38 39 39 38 36 35 33 32 30 30 30 29 28 27 26 24 23 22 21 19 19 18 18 17 16
21 21 20 20 20 20 20 21 23 25 27 28 30 32 34 35 37 37 38 39 39 39 37 37 36 34 32 31 31 32 31 29 29 27 26 25 24 22 21 21 20 19 18
20 20 18 17 17 17 17 18 19 21 23 25 27 29 30 32 34 36 37 39 40 40 40 39 38 38 35 33 32 32 31 31 30 30 29 27 27 26 24 23 22 21 20
20 18 17 15 15 15 15 16 17 18 19 20 22 25 28 30 32 33 35 37 40 41 41 41 40 39 38 37 34 33 33 33 32 32 31 30 30 29 27 26 25 24 23
18 17 16 15 15 14 14 15 15 16 16 17 19 21 23 26 29 31 33 35 37 39 40 41 42 41 40 39 38 35 34 33 33 34 33 32 32 31 30 29 29 27 26
18 18 17 16 15 14 14 14 14 14 14 15 17 18 20 22 26 29 31 33 35 37 39 41 42 43 43 41 41 39 36 36 35 35 34 34 35 34 33 32 32 30 29
18 18 18 16 15 15 14 13 12 13 13 13 14 16 18 20 23 26 29 31 33 35 37 40 41 42 43 43 43 42 40 38 36 35 35 35 35 36 34 34 34 33 32
19 19 19 18 17 16 15 14 13 13 13 13 13 14 15 17 20 23 26 28 30 32 34 37 39 40 42 44 44 44 43 41 39 37 36 36 36 37 37 36 35 35 34

GEFSSE_500_meanwind_084.txt.gz
Wind_Speed
8 9 8 8 8 7 7 7 7 8 9 9 10 11 12 12 12 13 13 13 13 13 13 13 13 13 13 12 12 12 12 12 12 11 11 10 10 9 8 8 8 8 8
10 11 10 10 10 10 10 9 9 10 10 10 11 12 12 13 13 13 13 14 14 13 13 13 13 13 13 13 13 13 13 13 13 12 11 11 10 9 8 8 7 7 7
12 12 12 12 12 12 12 12 12 12 12 12 12 12 12 13 13 13 14 14 14 14 13 13 13 13 13 13 13 13 13 14 13 12 11 11 10 9 8 7 6 6 5
12 13 14 14 15 16 15 15 14 14 14 14 14 13 14 13 13 13 13 13 13 13 13 13 13 13 12 12 12 12 12 12 12 11 10 10 10 9 8 6 6 5 4
13 13 14 15 16 18 19 18 17 16 16 16 16 16 16 15 15 14 14 13 13 13 13 13 12 12 12 12 12 11 11 11 10 10 9 9 9 8 7 6 6 5 3
15 15 15 15 16 17 19 20 20 19 19 19 19 18 18 17 17 16 15 14 14 13 13 13 12 12 11 11 11 11 10 10 9 9 8 8 8 7 7 6 5 5 3
17 17 18 18 18 19 18 19 20 22 22 21 21 21 20 19 18 18 17 16 15 14 13 13 12 11 11 10 10 10 10 10 9 8 7 7 7 7 6 6 5 5 4
21 20 21 21 20 20 19 20 22 22 24 23 23 23 23 22 21 20 20 18 17 16 15 14 13 12 11 10 10 10 10 9 9 8 7 7 7 6 6 5 5 5 5
25 24 24 24 24 23 22 22 22 23 24 25 25 25 25 25 24 23 22 21 20 18 17 16 14 13 12 12 11 10 10 9 9 8 7 7 7 6 6 6 5 5 6
28 28 28 27 27 26 25 25 25 25 24 24 25 26 27 27 27 27 25 24 23 21 19 18 17 15 14 13 12 11 10 10 9 8 8 8 7 7 6 6 6 6 6
31 31 31 30 30 30 29 29 29 28 28 28 27 27 28 28 28 29 28 27 26 24 22 20 19 17 16 15 13 12 11 10 9 8 9 8 8 8 8 7 7 7 7
32 32 33 33 33 33 33 33 32 32 32 31 30 29 29 29 29 28 28 28 28 27 25 23 22 20 19 17 15 14 13 11 10 9 9 9 9 9 8 8 8 8 7
32 33 33 33 34 33 34 34 34 34 34 33 33 32 31 30 30 30 29 28 28 28 27 26 24 23 22 20 18 16 15 13 11 10 10 10 9 9 9 9 8 8 9
30 30 30 30 31 32 32 33 34 35 35 36 35 35 34 33 31 31 30 28 27 28 27 27 26 25 24 22 21 19 17 15 14 12 12 11 11 11 11 10 9 9 9
28 27 27 28 28 30 31 32 32 33 33 34 35 36 36 34 32 31 32 32 29 27 27 28 27 26 26 24 23 22 20 18 16 15 14 13 12 12 12 12 11 10 10
26 25 25 25 25 26 27 28 30 30 31 32 33 33 34 35 34 34 33 33 32 30 29 29 28 27 26 26 25 23 22 20 19 18 16 15 14 14 13 13 13 12 12
24 24 23 23 23 24 24 25 26 27 28 29 30 31 31 32 32 32 33 33 33 33 32 31 29 28 28 27 26 25 24 22 21 20 19 18 16 16 15 15 14 14 13
23 22 22 22 22 22 22 22 22 23 24 26 27 29 30 30 31 32 31 32 32 33 33 33 31 30 30 29 29 27 25 24 23 22 21 20 19 18 17 17 16 16 15
22 21 21 21 20 19 19 19 19 19 20 22 24 26 27 29 30 31 32 33 32 32 33 34 32 32 32 31 30 29 28 26 25 25 24 23 22 21 20 19 18 18 17
21 20 20 19 19 18 17 17 17 17 18 19 21 23 24 26 28 29 30 32 32 32 33 33 34 34 33 33 32 30 30 29 28 27 27 26 24 23 23 22 21 20 19
20 20 20 19 18 17 15 15 15 15 16 16 18 20 22 23 26 27 29 30 32 32 33 33 33 34 34 34 33 32 31 31 30 29 29 27 27 26 25 24 23 22 22
20 20 20 19 18 17 15 14 14 14 15 15 16 17 19 21 23 25 27 28 30 31 33 33 34 35 34 34 34 34 31 31 30 30 30 30 29 28 28 26 26 24 24
20 20 20 19 18 17 15 15 14 14 14 14 15 15 17 18 20 22 24 26 28 30 31 33 34 35 35 35 34 34 33 33 31 31 31 32 31 31 31 29 28 27 26
20 20 20 20 19 18 17 16 15 14 14 13 14 14 15 16 17 19 22 24 26 28 30 32 34 35 35 35 36 36 35 34 33 31 31 32 33 32 32 32 30 30 29
20 20 20 20 20 19 19 18 16 15 14 13 13 14 14 15 15 17 19 21 24 26 28 30 32 34 35 35 36 37 37 37 35 34 33 32 32 33 33 33 33 31 30
20 21 21 21 21 20 20 19 18 17 16 15 14 14 13 14 14 15 17 19 22 24 26 28 30 32 33 34 35 36 37 37 37 37 36 35 34 34 34 35 35 34 33

GEFSSE_500_meanwind_090.txt.gz
Wind_Speed
9 9 8 8 7 7 8 8 8 8 8 9 10 11 11 11 11 12 12 13 13 13 14 14 14 15 15 15 14 14 13 13 13 13 12 11 10 10 9 8 7 7 6
10 9 8 9 9 9 10 10 10 10 11 11 11 12 13 13 13 13 13 13 14 14 14 14 15 15 15 16 15 15 14 14 14 13 13 12 11 10 9 9 7 6 4
10 10 9 10 11 11 12 12 13 13 13 13 14 14 15 15 15 15 14 15 15 15 15 15 15 15 16 16 16 16 15 15 15 14 13 12 12 11 10 8 7 5 4
11 11 11 11 12 14 14 14 15 16 16 16 16 16 16 16 16 16 16 16 16 16 15 15 15 15 15 16 16 15 15 15 14 14 13 12 12 11 10 8 7 5 3
11 12 13 13 13 14 15 16 17 17 18 19 18 18 18 18 17 17 17 17 17 17 16 16 16 15 15 15 15 15 14 13 13 12 12 12 11 11 9 8 7 5 4
15 15 15 15 16 16 17 19 19 20 20 21 21 21 20 20 19 19 18 18 18 17 17 16 16 15 15 15 14 14 13 12 12 11 11 11 10 10 9 8 7 6 5
18 18 18 19 19 19 20 21 21 21 23 23 23 23 23 23 22 21 21 20 19 18 18 17 16 16 15 15 14 13 12 11 11 11 11 10 9 9 8 7 7 6 5
22 22 22 22 22 22 23 23 24 24 24 24 25 25 25 26 26 24 23 23 21 20 19 18 17 17 16 14 13 12 12 11 11 11 10 9 9 8 7 7 7 6 6
24 25 25 24 25 25 26 26 27 27 27 26 26 27 27 26 27 27 26 25 24 23 21 20 18 17 16 15 14 13 12 11 11 11 10 9 8 8 7 7 7 7 7
26 27 27 27 27 28 28 29 29 29 29 30 29 29 29 29 28 28 28 28 27 26 24 22 21 19 18 17 15 14 13 12 12 11 10 9 9 8 8 7 7 7 8
26 27 27 28 28 29 30 31 31 32 31 31 31 31 31 31 31 29 29 29 29 28 27 25 24 22 20 19 17 16 14 13 13 12 11 10 10 9 9 8 8 8 8
25 26 27 27 28 28 29 30 32 33 33 33 33 32 32 32 33 31 30 30 30 29 28 28 27 25 22 21 19 18 16 15 14 13 12 11 11 10 10 9 9 9 9
23 23 24 25 25 26 27 28 29 31 33 33 34 34 33 33 33 33 32 31 31 30 29 30 28 28 25 23 22 20 18 17 16 14 13 12 11 11 11 10 10 10 10
21 21 21 22 23 24 25 26 26 28 30 31 32 33 33 33 33 33 33 33 31 31 30 30 29 29 28 26 24 22 20 19 18 16 15 13 12 12 12 11 11 11 10
20 20 20 20 21 21 22 23 24 25 26 28 29 31 32 32 33 32 32 32 31 30 31 31 30 30 30 28 26 25 23 22 20 19 17 16 14 14 13 13 12 12 11
19 19 19 19 19 20 20 21 21 22 23 24 26 27 29 30 30 31 32 31 31 31 31 31 31 29 29 29 28 27 25 23 22 22 20 18 17 16 15 15 14 13 13
18 19 19 19 19 19 18 18 18 19 20 20 21 24 26 27 28 29 30 30 30 31 31 31 32 30 29 28 29 28 27 25 23 23 22 21 19 18 17 16 15 15 15
18 19 19 18 18 17 17 16 16 16 16 17 18 20 22 24 25 26 27 29 29 30 30 31 32 31 29 29 30 30 29 27 25 24 24 23 21 20 19 18 17 17 16
18 18 18 18 17 17 16 15 14 13 13 13 14 16 18 20 22 23 25 26 28 28 30 31 31 31 31 30 29 31 31 30 27 26 26 25 23 22 21 20 19 18 18
18 18 18 18 17 17 16 14 13 12 11 11 11 12 15 17 19 21 23 25 27 28 29 31 31 31 31 31 30 30 31 31 30 28 28 27 26 24 23 23 22 20 20
19 19 18 18 18 17 16 15 13 12 11 10 10 10 12 14 17 18 21 24 25 26 28 29 30 31 30 30 31 30 30 30 31 30 30 29 28 27 26 26 25 23 22
19 19 19 19 19 18 17 16 14 13 12 11 10 10 11 12 14 16 18 21 23 25 27 28 29 30 31 31 30 31 32 31 31 31 31 31 31 30 29 28 27 27 25
18 19 19 19 19 19 19 18 17 15 14 13 11 10 10 11 13 14 16 18 21 24 25 27 27 28 30 32 31 31 32 32 32 31 32 31 32 32 31 31 30 29 28
18 19 20 20 20 20 19 19 18 17 16 15 13 12 11 11 12 13 14 16 18 21 23 25 27 28 29 31 32 32 32 33 33 32 33 33 33 33 32 33 32 31 30
19 20 20 20 20 21 20 19 18 18 17 16 15 14 13 12 12 12 12 14 16 18 20 23 25 27 29 30 31 32 33 33 33 33 34 34 33 34 34 34 34 33 32
18 20 21 21 21 21 21 20 19 18 18 17 16 15 14 13 12 11 11 11 12 14 17 19 22 24 27 29 30 31 33 34 35 35 35 34 33 34 35 35 35 35 35

GEFSSE_500_meanwind_096.txt.gz
Wind_Speed
11 11 11 10 10 9 8 8 8 7 7 7 7 8 8 9 9 8 9 9 9 9 9 10 10 11 11 11 12 12 12 12 11 11 11 10 10 9 9 8 8 8 7
11 11 10 10 10 11 10 10 10 10 9 9 10 10 11 11 11 10 11 10 10 10 10 10 11 11 11 12 12 12 13 13 12 12 12 11 10 10 9 8 8 7 5
11 11 10 10 11 12 12 12 12 12 12 12 13 13 13 13 13 13 13 12 12 11 11 11 11 11 11 12 12 13 12 13 12 12 12 11 11 10 9 8 7 6 4
13 12 12 12 12 13 14 15 15 14 15 15 15 15 15 15 15 15 15 14 14 14 13 12 12 12 12 12 12 12 12 12 12 12 12 11 11 10 9 8 7 5 4
13 13 14 13 14 16 16 17 17 17 17 17 17 17 17 17 18 18 17 17 16 15 15 14 13 13 12 12 12 12 12 12 12 11 11 10 10 9 8 7 5 5 4
16 15 16 17 16 17 19 19 19 20 20 20 19 19 19 19 20 20 20 19 18 17 16 15 14 14 13 12 12 12 12 12 11 11 10 9 9 8 8 7 5 4 4
19 19 20 20 20 20 21 21 21 22 22 22 22 21 22 21 22 22 21 21 20 19 18 17 16 14 13 12 12 11 11 11 11 10 9 9 8 8 7 6 6 5 4
22 23 23 24 24 25 25 25 25 25 25 25 26 26 25 24 24 23 24 23 22 20 19 19 17 16 14 13 12 12 11 11 10 9 9 9 8 7 7 6 6 5 5
23 24 24 25 25 26 27 28 28 29 29 29 29 28 27 27 27 26 25 25 24 23 21 20 20 18 16 15 14 13 12 11 10 10 9 9 8 7 6 6 6 6 6
23 24 24 24 25 26 27 29 29 30 31 32 32 31 30 29 29 29 29 27 26 25 24 23 22 21 19 17 15 14 13 12 11 10 9 9 8 8 7 7 6 7 7
22 22 23 24 24 25 26 28 29 31 32 33 34 33 33 32 31 30 30 29 28 27 25 25 24 23 21 20 18 16 15 14 13 11 10 10 9 9 9 8 7 8 8
20 20 21 22 22 23 24 25 26 28 30 32 34 34 34 34 32 32 31 30 30 28 28 27 26 25 24 22 21 19 17 16 15 13 12 11 10 10 10 9 8 8 9
17 18 19 20 20 21 22 22 23 24 26 29 31 33 34 34 34 33 33 31 31 30 29 28 27 26 26 24 23 21 20 18 17 15 14 13 12 11 11 11 10 9 10
17 17 17 18 18 19 19 20 20 22 22 24 27 29 31 32 33 33 33 31 31 30 30 29 28 26 26 25 24 23 22 20 19 17 16 15 14 12 12 12 11 11 11
16 16 17 17 17 18 18 18 19 19 20 21 23 25 27 29 30 31 32 32 32 31 30 31 30 28 26 25 24 23 24 23 21 19 18 17 15 14 13 13 13 13 12
15 16 16 17 17 17 17 17 17 18 18 19 20 21 23 25 27 27 29 30 31 31 30 30 30 29 27 26 26 25 24 25 24 22 20 19 18 16 15 14 14 14 14
15 16 16 17 17 17 17 17 17 17 17 17 17 18 20 21 23 25 26 27 29 30 29 28 28 28 27 26 26 26 26 26 26 24 23 22 20 19 17 17 16 16 15
16 16 17 17 17 17 17 17 16 16 16 15 15 15 16 17 19 21 23 25 26 28 29 28 28 27 27 26 26 27 26 27 27 27 26 24 23 21 20 19 19 18 18
16 17 17 18 18 18 17 17 16 15 15 14 13 13 13 15 16 18 20 22 24 26 27 28 28 28 28 28 27 28 28 28 28 29 28 27 25 23 22 21 21 20 20
16 17 18 18 18 18 17 17 17 15 14 14 13 12 12 13 14 16 17 19 21 24 26 27 28 28 28 28 28 29 29 29 29 30 30 29 28 26 25 24 23 22 22
16 18 18 19 18 18 18 18 18 17 16 14 13 12 12 12 13 15 16 17 19 21 24 26 27 28 28 28 29 29 30 30 30 30 30 30 29 28 28 26 25 24 24
16 18 19 19 19 19 18 19 18 17 16 15 14 13 13 12 12 13 15 16 18 20 22 25 27 27 28 28 29 30 30 31 31 31 31 31 30 30 29 29 28 27 26
16 18 19 20 20 19 19 19 19 19 18 17 16 14 13 12 12 12 13 14 16 18 20 23 25 27 28 28 28 29 30 31 31 31 32 32 32 31 31 31 30 29 28
16 18 19 20 20 20 20 20 20 19 19 18 17 15 14 13 12 11 12 13 14 15 17 19 22 24 26 26 27 29 29 30 31 32 33 34 33 33 33 33 32 31 30
16 17 19 20 20 20 20 20 20 20 19 19 18 16 15 13 12 11 10 10 11 13 14 16 18 21 23 25 26 28 29 29 31 32 33 35 35 34 34 35 34 34 33
15 17 19 20 20 20 21 20 20 20 20 20 19 17 15 14 12 11 9 9 8 9 11 12 14 18 20 23 24 26 27 28 31 32 33 34 35 35 35 35 35 36 35

GEFSSE_500_meanwind_102.txt.gz
Wind_Speed
10 10 10 9 9 10 11 11 12 12 12 13 14 14 14 14 14 14 14 13 13 12 12 11 11 10 10 9 9 9 8 7 7 7 7 6 6 6 6 6 6 6 6
10 11 11 10 10 11 12 12 12 13 14 14 15 16 16 16 15 15 15 14 14 13 13 12 12 11 11 10 10 10 9 9 8 8 7 7 7 6 6 6 6 5 4
12 13 13 12 12 12 14 14 14 14 15 16 17 17 18 17 17 17 16 16 15 14 13 13 13 12 12 11 11 11 10 10 9 9 8 7 7 7 7 6 5 5 4
14 14 14 14 14 14 14 16 17 17 17 18 18 19 18 17 17 18 18 18 17 16 15 14 13 13 12 12 12 11 11 10 10 9 8 8 7 7 7 6 5 4 4
15 15 14 15 15 16 16 18 19 19 19 19 20 20 19 19 19 20 20 19 19 18 17 16 15 14 13 13 12 12 12 11 10 9 9 8 7 7 7 6 6 4 4
16 16 17 17 17 17 18 20 20 21 22 22 21 21 21 21 21 21 21 20 20 20 19 18 16 15 14 13 13 13 12 11 10 10 9 8 8 7 7 7 6 5 5
17 18 19 19 19 20 21 22 23 24 24 25 24 23 24 23 23 23 23 22 21 20 20 19 18 16 15 14 13 13 12 11 11 10 9 8 8 8 7 7 7 6 5
18 18 19 20 21 22 23 24 26 26 27 28 27 26 26 25 25 25 25 25 23 22 21 19 19 18 17 16 15 14 13 12 11 11 10 9 9 8 8 8 8 7 7
17 17 18 20 21 22 23 24 26 27 29 30 30 29 29 27 27 27 27 27 25 24 23 21 20 20 19 17 16 15 14 13 12 12 11 11 10 9 8 8 9 9 8
16 17 18 19 20 21 22 23 24 26 28 29 30 31 31 31 30 29 28 27 27 26 25 24 22 21 21 19 18 17 16 15 14 12 12 12 11 10 9 9 9 10 9
15 15 16 17 18 19 20 21 23 24 26 27 28 29 30 31 32 32 31 29 28 28 28 27 25 23 22 21 20 19 18 17 16 14 13 13 12 11 10 9 10 11 11
13 14 15 15 16 17 19 20 21 22 23 25 26 27 28 30 31 32 32 31 30 30 29 29 27 26 25 23 21 20 20 19 17 16 15 14 13 12 11 11 11 11 11
13 13 14 14 15 16 17 18 20 21 22 22 24 25 26 27 29 31 32 31 31 31 30 28 28 27 27 25 22 21 21 21 20 18 17 16 15 14 13 12 12 12 12
11 12 13 13 14 15 16 17 18 19 20 21 22 23 24 25 26 28 30 31 31 31 30 29 29 28 27 26 25 23 21 22 22 21 19 17 17 15 14 13 13 13 13
11 11 12 13 13 14 15 16 17 18 18 19 20 20 20 21 23 24 26 28 30 31 31 30 28 28 28 27 26 25 24 22 22 22 21 19 18 17 16 15 15 15 15
10 11 12 13 14 14 15 15 15 15 16 17 18 19 19 19 20 22 23 25 26 28 29 30 30 28 28 27 27 27 26 24 24 23 22 21 20 19 18 17 16 17 16
10 11 12 13 14 14 14 15 15 15 15 15 16 17 18 18 19 19 21 22 24 25 28 29 29 30 29 28 27 26 27 26 25 24 24 23 22 21 20 19 19 18 18
10 11 12 13 13 14 14 14 14 14 14 14 14 14 15 16 17 17 19 20 22 24 26 27 29 30 30 29 28 27 28 27 27 26 25 25 24 24 23 22 21 20 20
10 11 12 13 13 14 14 14 15 15 14 14 13 12 13 14 14 15 16 18 20 21 24 26 28 30 30 30 29 28 28 28 27 28 27 27 26 25 24 23 23 22 21
9 11 12 14 14 14 15 15 15 15 15 14 13 12 12 12 13 14 14 15 17 19 21 23 26 28 29 30 29 29 28 29 29 28 28 28 28 27 25 25 24 24 23
9 11 13 14 15 15 15 15 16 16 15 14 13 12 11 11 11 12 13 14 16 17 19 21 24 25 27 28 29 29 28 28 29 29 28 29 29 28 28 27 26 25 25
10 12 13 14 15 15 16 16 16 16 16 15 14 13 12 11 10 10 11 12 14 15 17 19 22 24 25 27 28 28 28 28 28 30 29 29 30 30 30 29 28 27 27
10 12 13 14 15 15 16 16 16 16 16 16 15 14 12 11 10 10 10 10 12 13 14 17 19 21 23 25 27 28 28 28 29 29 30 29 30 30 30 30 30 30 29
10 12 13 14 15 15 16 16 17 17 17 16 16 14 12 11 10 9 8 8 9 10 12 14 16 18 21 23 25 27 27 27 27 28 29 30 31 32 31 31 32 32 31
10 11 13 14 15 15 16 16 17 17 17 16 16 15 13 12 10 8 7 6 6 7 8 10 13 16 19 21 23 24 25 25 25 27 28 30 32 33 33 32 32 32 32
9 11 12 13 14 16 16 16 17 17 17 16 16 15 14 13 11 9 8 6 5 5 5 7 10 12 15 18 20 22 23 23 24 25 27 29 31 33 33 33 33 33 33

GEFSSE_500_meanwind_108.txt.gz
Wind_Speed
10 11 11 12 13 13 12 12 13 14 14 15 15 16 16 17 17 18 18 18 17 17 16 16 15 14 14 13 13 12 11 11 9 8 8 7 7 7 6 6 6 6 6
11 12 12 13 13 13 13 13 14 15 16 16 17 18 18 19 20 20 19 19 19 18 17 17 16 16 15 14 13 13 12 12 11 10 9 8 8 7 6 6 5 5 5
13 13 13 14 14 14 14 15 16 16 17 18 19 19 20 19 20 22 22 22 21 20 19 18 17 17 16 16 15 14 13 12 12 11 10 9 8 8 7 6 5 5 5
14 15 15 15 15 15 15 16 17 17 17 18 19 20 21 21 21 22 23 23 23 22 21 20 19 19 18 17 16 15 15 14 13 12 10 10 9 8 7 7 6 4 4
15 16 16 16 17 17 17 18 18 18 19 19 20 20 21 22 22 22 23 23 23 23 22 21 20 19 19 18 18 17 16 15 14 12 12 11 10 9 8 7 6 5 3
16 17 17 18 18 18 19 20 20 20 21 22 22 22 22 22 22 22 22 23 24 24 23 22 21 21 20 20 19 18 17 16 14 13 12 11 10 9 8 8 7 5 3
16 17 17 17 18 19 19 20 21 22 23 24 25 25 25 25 24 24 23 24 24 23 24 24 23 22 22 21 20 19 18 16 15 14 13 12 11 10 9 8 7 5 4
16 15 16 16 17 18 18 20 21 22 23 24 25 26 26 26 26 26 26 26 25 25 25 24 24 23 22 22 21 20 19 17 16 14 14 13 12 10 9 9 8 6 5
15 15 15 16 17 18 18 19 20 21 22 23 24 25 25 25 26 26 26 26 26 26 26 25 24 24 24 23 22 21 20 18 17 15 15 14 13 11 10 9 9 8 7
14 15 15 16 16 17 17 18 19 19 21 22 23 25 25 25 25 26 26 25 26 26 26 25 24 24 24 24 24 23 21 20 18 17 15 15 14 12 11 10 10 9 8
13 14 14 15 16 16 17 17 19 19 19 21 22 24 25 25 25 26 26 26 26 26 26 26 25 24 25 25 24 23 22 21 21 18 17 16 15 14 13 11 11 10 10
12 13 14 14 15 16 16 17 18 19 19 19 20 22 23 24 25 26 26 26 27 27 27 26 26 26 26 25 25 25 23 22 21 20 19 17 16 15 14 12 12 11 11
12 13 13 14 15 16 17 17 18 19 19 19 20 21 22 23 24 24 25 25 26 28 27 27 28 27 26 26 25 25 24 23 21 21 20 19 17 16 15 14 13 13 12
11 12 13 14 15 16 17 18 18 19 19 19 20 20 21 21 22 23 23 24 25 26 27 28 29 29 28 27 26 26 26 25 24 21 21 21 20 19 17 15 14 14 14
11 12 13 14 15 16 17 18 19 19 19 19 19 20 20 20 21 22 22 22 23 25 26 26 28 28 28 28 28 26 25 26 25 23 22 21 21 20 19 17 16 16 15
11 12 13 14 16 17 18 18 18 19 19 19 20 20 20 20 20 20 20 20 21 23 24 25 26 27 28 28 28 28 27 27 26 25 23 22 22 22 21 19 18 17 16
11 12 13 15 16 17 18 18 18 19 19 19 20 20 20 19 19 19 18 18 20 21 22 23 24 25 27 28 28 28 27 27 26 26 24 23 22 23 22 21 20 18 18
11 12 14 15 17 18 18 19 19 19 19 19 20 20 19 19 18 17 17 17 17 19 20 21 22 24 25 26 27 28 27 27 27 27 26 24 23 23 23 22 22 20 19
11 12 14 16 17 18 18 19 19 19 19 19 19 19 19 18 17 15 15 16 16 17 18 20 21 23 24 25 26 27 27 27 26 28 28 26 25 24 24 24 23 22 21
11 12 14 15 16 17 19 19 20 19 19 18 18 18 18 17 16 14 14 14 15 15 16 18 20 21 23 25 25 26 26 26 26 26 28 27 26 25 25 25 25 24 23
11 12 14 15 16 18 18 19 19 19 18 18 18 18 17 16 15 14 13 13 14 14 14 16 18 20 21 24 24 25 26 27 27 26 27 28 27 27 26 25 25 25 24
11 12 14 15 16 17 18 19 19 19 18 18 18 18 17 16 15 14 13 12 12 12 12 13 15 18 20 22 23 25 25 26 27 27 27 27 29 28 27 26 26 26 25
11 12 13 15 16 17 18 19 19 19 18 18 18 18 17 16 15 13 12 11 10 10 11 11 12 15 17 19 22 23 24 25 25 27 27 27 28 29 28 27 26 26 26
10 12 13 14 16 17 18 18 19 19 18 18 18 18 17 16 14 13 12 10 9 8 9 10 10 11 14 16 19 22 23 24 25 26 27 27 28 28 27 27 28 28 28
10 12 13 14 15 16 17 18 18 18 18 19 18 17 16 16 14 13 11 9 7 7 7 7 8 10 11 13 16 19 22 23 24 25 26 26 26 27 28 28 28 29 29
10 11 12 13 15 16 17 17 18 18 18 18 18 17 16 16 14 13 11 9 7 6 5 5 6 8 9 11 13 16 19 20 22 23 24 23 24 26 27 27 28 30 30

GEFSSE_500_meanwind_114.txt.gz
Wind_Speed
7 8 8 8 9 9 10 11 12 13 14 15 15 16 17 17 18 19 19 20 19 19 18 18 17 17 16 16 15 15 14 13 12 12 10 9 8 7 7 6 6 5 5
8 9 9 10 10 10 11 12 13 13 14 15 16 17 18 18 19 20 21 21 21 21 20 19 19 18 17 17 16 16 15 14 13 12 12 10 9 8 7 7 6 5 5
9 10 11 12 12 12 12 13 14 14 15 16 17 17 18 19 20 21 21 22 23 23 22 21 21 20 19 18 18 17 16 15 14 13 12 11 10 9 8 7 6 6 5
11 12 13 13 13 13 13 14 14 15 16 17 17 18 18 19 20 22 23 23 24 24 23 23 22 22 21 20 19 18 17 16 15 14 13 12 11 9 8 7 6 6 5
12 13 13 13 13 14 15 15 15 16 17 18 18 18 19 20 21 22 23 23 24 24 25 24 24 23 23 22 21 20 19 17 16 15 14 13 12 10 9 8 6 6 5
12 12 12 13 13 14 14 15 16 16 17 18 19 20 20 21 21 22 23 24 25 25 26 26 25 25 24 23 22 21 20 19 17 16 15 15 13 11 10 8 7 6 5
12 12 11 11 12 13 13 14 15 16 17 18 19 19 20 21 22 22 23 24 25 26 26 27 27 26 25 24 23 22 20 19 18 17 16 15 14 12 10 9 7 6 4
11 11 11 11 11 12 13 14 15 16 16 17 17 18 19 20 21 22 23 24 25 26 27 27 27 27 26 25 24 23 21 20 19 18 16 16 14 13 11 9 8 7 4
10 10 9 10 10 11 12 13 14 14 15 16 17 18 19 20 21 21 23 24 25 25 26 27 27 27 27 27 26 24 22 21 20 19 17 16 15 14 12 10 9 8 6
8 8 9 9 10 11 12 12 13 14 15 16 17 18 18 20 21 22 23 24 24 25 25 26 27 27 27 27 27 25 24 22 21 20 19 17 16 15 14 12 10 9 8
7 8 8 9 10 11 11 12 13 14 15 16 17 18 18 19 20 21 22 23 24 25 25 26 26 27 28 28 27 26 25 23 22 21 20 18 17 16 14 13 11 10 10
6 7 7 9 10 11 11 12 13 14 15 16 17 17 18 18 19 20 21 22 24 25 25 25 26 27 28 28 27 26 25 24 22 21 21 20 19 17 15 14 13 12 11
6 6 7 8 9 11 12 13 13 14 15 15 16 17 17 18 18 19 20 21 23 24 25 26 25 27 28 28 28 27 25 25 23 22 22 21 20 19 17 16 15 13 13
6 6 7 8 9 11 12 13 14 15 15 15 16 16 17 17 18 18 19 20 21 23 25 26 26 26 28 29 29 28 27 25 24 24 23 22 21 21 19 17 16 15 14
5 6 8 9 11 12 14 15 16 16 16 16 17 16 17 17 17 18 18 19 20 22 24 25 26 26 28 30 30 29 28 26 25 25 24 23 23 22 21 19 18 16 16
5 6 8 11 12 14 15 16 17 17 17 17 17 17 17 16 17 17 18 18 19 20 22 24 25 27 27 30 31 31 30 28 27 26 25 25 23 22 22 20 19 18 17
6 8 10 11 13 14 15 16 16 17 18 18 18 17 17 17 17 16 16 17 18 18 20 22 24 26 27 28 30 31 31 30 28 27 27 26 25 24 23 22 21 20 19
6 8 10 11 13 14 15 16 17 17 18 18 18 17 17 17 17 16 16 16 16 17 18 20 22 24 26 27 29 30 30 31 30 28 27 28 27 26 24 23 22 21 20
6 8 10 12 13 14 16 17 17 18 19 19 19 18 18 17 17 17 15 14 14 15 16 18 20 22 24 26 28 29 30 31 31 30 28 28 28 27 25 24 23 22 22
7 9 11 12 13 15 16 17 18 18 19 19 19 18 18 18 17 16 14 14 13 14 15 16 18 20 23 25 26 27 29 29 30 31 29 28 28 28 26 25 24 23 22
7 9 10 12 13 15 16 17 18 18 19 19 19 19 18 18 17 16 14 13 12 12 13 14 16 18 20 23 25 26 27 28 29 30 29 28 28 28 27 26 26 25 24
7 9 10 12 13 14 16 17 18 18 19 20 19 19 18 17 17 16 15 13 12 11 11 12 14 17 18 19 22 25 27 28 28 29 29 28 28 29 29 28 26 27 26
7 9 10 12 13 14 15 16 17 18 19 20 20 19 18 17 17 16 15 13 11 10 9 10 12 14 16 17 20 22 25 27 27 29 29 29 29 29 29 29 28 27 26
7 9 10 11 12 13 15 15 17 18 19 20 20 19 18 17 16 16 14 12 10 8 7 7 9 11 13 15 18 20 22 25 26 27 28 29 29 29 29 29 29 28 27
7 8 10 11 12 13 14 15 16 17 18 19 20 19 18 18 17 16 14 12 9 7 5 5 6 8 10 13 16 18 21 23 24 25 27 28 28 28 28 29 30 29 29
7 8 9 10 11 12 13 14 16 17 18 19 19 18 18 18 17 16 14 12 9 6 4 3 4 6 8 9 12 15 18 20 23 24 25 27 28 27 28 28 29 29 29

GEFSSE_500_meanwind_120.txt.gz
Wind_Speed
5 6 7 8 9 9 10 11 11 11 12 12 12 12 12 13 14 14 15 16 16 16 16 16 15 15 14 13 13 12 12 11 11 10 9 8 8 7 6 6 5 5 4
6 7 7 8 9 10 11 12 12 12 13 13 13 13 13 14 15 15 16 16 17 17 17 17 17 17 16 15 14 13 13 12 12 11 10 9 8 8 7 6 5 5 4
8 8 9 10 10 11 12 12 12 13 13 14 14 14 15 15 16 16 17 17 18 19 19 19 19 18 17 17 15 14 14 13 12 11 11 10 9 8 8 7 6 5 4
9 10 10 11 11 11 12 12 12 13 13 13 14 14 16 16 17 18 18 18 19 20 20 20 20 20 19 18 16 15 14 14 13 12 11 10 10 9 8 7 6 5 4
10 10 11 11 11 11 11 11 11 12 13 14 15 16 16 17 17 18 18 19 19 20 21 21 20 21 21 20 18 17 16 15 14 13 12 11 10 10 9 8 6 6 5
10 11 11 10 10 10 11 11 12 13 13 14 15 16 16 17 17 18 19 19 20 21 22 22 22 22 22 21 20 18 17 16 15 14 13 12 11 10 9 8 7 6 5
9 10 10 9 9 9 10 11 12 13 13 14 15 16 17 18 18 18 19 20 20 22 23 22 22 22 23 23 22 20 18 17 16 15 14 13 12 11 10 9 7 6 5
8 8 8 8 8 9 10 11 12 13 14 15 15 16 16 17 18 18 19 20 20 21 22 22 22 22 23 24 23 22 20 18 17 16 15 14 13 12 10 9 8 6 5
7 7 6 7 8 9 10 11 12 13 14 15 16 16 17 18 18 19 19 20 21 21 22 23 23 23 24 24 24 23 22 20 18 17 16 15 13 12 11 10 8 6 5
7 6 6 7 8 9 10 11 12 13 14 15 16 17 18 18 19 19 20 21 22 22 23 24 23 24 24 25 25 24 23 21 20 19 17 15 14 13 12 11 9 7 6
6 6 6 7 8 9 9 10 11 12 13 14 16 17 18 18 18 19 20 20 21 22 23 24 24 24 24 25 25 24 23 22 21 20 19 17 16 14 14 12 10 9 8
6 6 7 8 8 8 9 10 11 13 14 15 15 16 17 18 18 19 19 20 21 22 23 23 24 24 24 25 25 25 24 22 21 21 20 19 17 16 15 14 12 10 9
6 6 6 7 8 8 9 11 12 13 14 15 15 16 16 17 18 19 19 20 21 22 23 24 24 25 25 24 24 25 25 24 23 22 21 20 18 17 17 15 14 12 11
6 5 6 6 7 8 9 11 12 13 14 15 15 16 17 17 18 19 20 20 20 21 22 23 24 25 26 25 24 25 25 25 24 23 22 21 19 18 18 17 15 14 12
5 5 5 6 7 9 10 11 12 13 14 15 16 16 17 18 18 19 19 20 20 21 21 22 24 25 27 27 26 26 26 25 26 24 23 22 20 19 19 18 17 16 14
4 4 5 7 8 9 10 11 13 14 15 15 16 17 18 18 18 18 18 19 19 20 20 21 22 24 26 27 26 26 26 26 26 25 25 24 23 21 20 20 19 17 16
4 4 5 7 8 9 10 12 13 14 15 16 17 18 18 18 18 19 19 19 19 20 20 21 22 23 24 25 26 26 27 27 28 27 26 25 24 23 22 21 20 19 18
4 4 6 7 8 9 11 12 14 15 16 16 17 18 19 18 18 19 19 19 19 19 19 20 21 22 22 24 24 25 27 28 29 28 28 26 26 24 24 22 21 20 19
4 5 6 7 8 10 11 12 14 15 16 17 18 19 19 18 18 18 18 18 18 18 18 18 19 20 21 22 23 24 26 27 28 28 29 28 27 26 25 24 23 21 20
4 5 6 7 9 10 11 13 14 15 16 17 18 19 19 18 18 18 18 18 18 17 17 17 18 19 19 21 22 23 25 27 28 28 28 29 29 27 26 25 24 23 22
5 5 6 8 9 10 12 13 14 15 17 17 18 19 19 19 18 18 18 17 17 16 16 15 16 17 18 19 21 22 24 26 27 27 28 29 29 28 27 27 26 25 24
5 6 7 8 9 10 12 13 14 15 17 17 18 19 19 19 19 18 18 17 16 15 14 13 14 14 16 17 19 21 22 24 26 27 27 28 29 29 28 27 28 27 26
6 7 7 8 9 10 12 13 14 15 17 17 18 19 19 19 19 18 18 17 16 14 13 12 11 12 14 15 17 19 20 22 25 26 27 28 29 29 29 28 29 28 27
6 7 7 8 9 10 12 13 14 15 17 17 18 19 19 19 19 18 18 16 14 13 11 10 9 10 11 13 15 17 19 21 23 25 26 27 29 29 29 29 29 27 27
6 7 7 8 9 10 12 13 14 15 16 17 18 18 18 19 18 17 17 16 14 12 11 9 8 8 9 11 14 16 17 19 21 23 25 26 27 29 29 29 29 28 27
7 7 7 8 9 10 11 13 14 15 16 16 17 18 18 18 18 17 16 15 14 12 10 8 7 7 8 10 12 14 16 18 20 21 23 25 26 27 28 28 28 28 28

GEFSSE_500_meanwind_126.txt.gz
Wind_Speed
3 3 4 4 5 6 7 7 7 7 7 8 8 9 9 10 11 11 11 11 12 12 12 12 12 12 11 10 9 9 8 7 7 7 6 6 5 4 4 3 2 2 3
4 4 5 5 6 6 7 8 8 7 8 8 8 9 10 11 11 11 12 12 13 13 13 13 13 13 12 12 11 10 10 9 8 8 7 6 6 5 4 4 3 3 3
5 6 6 6 6 7 7 8 8 8 8 8 9 10 10 11 11 12 13 13 14 14 14 14 14 14 14 13 13 12 11 10 9 9 8 8 7 6 5 5 4 4 3
6 7 7 7 7 7 7 8 8 8 9 9 10 11 11 12 12 13 13 13 14 15 15 15 15 15 15 15 14 14 13 12 11 10 9 9 8 7 7 6 5 5 4
7 7 7 8 8 8 8 8 8 9 10 11 11 12 13 13 13 13 14 15 15 16 16 16 16 16 16 16 16 15 15 14 12 11 11 10 9 8 8 7 7 6 5
6 7 7 8 8 8 8 8 8 9 10 11 12 13 13 13 13 14 15 15 16 16 17 17 17 17 17 17 17 17 17 16 14 13 12 12 11 10 9 8 8 7 7
6 6 7 6 6 7 7 8 9 10 11 12 12 13 14 14 15 15 16 16 16 17 17 17 18 18 18 18 18 17 17 17 16 15 14 13 12 11 10 9 8 8 8
6 6 5 5 5 6 7 8 10 10 11 12 12 13 14 14 15 16 17 17 17 17 18 18 18 19 18 18 17 17 18 17 17 17 15 14 13 12 11 10 10 9 9
5 5 4 4 5 6 7 8 10 10 11 11 12 14 15 15 16 16 17 18 18 18 18 19 19 19 18 18 18 18 19 19 18 18 17 15 14 13 12 11 11 10 9
5 4 4 4 5 6 7 9 10 11 11 12 12 13 14 15 16 17 17 17 18 18 18 19 19 19 19 19 19 18 20 20 20 19 18 17 16 15 13 12 12 11 10
5 4 4 4 6 7 8 9 10 10 11 12 13 14 14 15 16 17 17 17 17 17 18 18 19 19 20 19 20 20 20 21 21 21 19 19 18 16 15 14 13 12 11
5 4 4 5 7 8 9 9 10 10 11 12 13 14 15 15 16 16 17 17 17 18 18 19 19 20 20 20 21 20 20 21 21 22 21 20 19 18 16 15 14 13 12
5 5 5 6 7 8 8 9 10 11 11 13 14 14 15 15 16 16 17 18 18 18 19 19 20 20 21 22 20 20 21 22 21 21 22 21 20 19 18 17 16 15 14
5 5 5 7 7 8 8 9 10 11 12 13 14 14 15 16 16 16 17 18 18 18 19 20 21 21 21 22 21 21 21 22 21 22 23 23 22 20 20 19 18 16 15
6 6 6 7 7 8 9 9 10 12 13 14 14 15 16 16 17 17 17 18 18 19 19 20 21 21 22 22 22 22 23 23 24 23 23 24 23 21 21 20 20 18 17
6 6 6 7 7 8 9 10 11 12 13 14 15 16 16 17 18 18 18 18 19 19 19 19 20 21 22 22 22 23 24 25 26 25 24 24 23 23 22 21 21 20 19
7 7 7 7 7 8 9 10 12 13 14 15 16 16 17 17 18 18 19 19 19 19 19 18 18 19 20 21 22 22 23 25 26 26 26 25 25 25 24 22 22 21 20
7 7 8 8 8 9 10 11 12 13 14 15 16 17 17 18 18 19 19 19 19 19 19 18 18 18 19 20 21 22 23 24 25 27 28 27 26 26 26 24 23 22 22
7 7 8 8 9 10 10 11 13 13 14 16 16 17 18 18 19 19 19 19 19 18 18 18 17 17 18 18 20 21 23 24 25 26 28 28 28 28 28 26 24 23 23
7 7 8 9 9 10 11 12 13 14 15 16 17 17 18 18 19 19 19 19 19 18 17 16 16 16 17 17 18 19 21 23 24 26 28 29 29 29 28 28 26 24 24
7 7 8 9 10 11 11 12 13 14 15 16 16 17 18 19 19 19 19 19 18 17 16 15 14 15 15 16 17 18 19 21 23 25 27 28 29 29 30 30 28 27 25
7 8 8 9 10 11 12 12 13 14 15 15 16 17 18 19 19 19 19 19 17 17 16 15 14 13 14 15 16 16 18 19 21 24 26 27 29 30 31 31 30 28 27
7 8 8 9 10 11 12 13 13 14 15 16 16 17 18 18 19 19 19 19 18 17 16 15 13 13 13 13 14 15 17 18 20 23 25 26 28 29 30 31 30 30 29
8 8 9 9 11 11 12 13 13 14 15 16 17 17 18 18 19 19 19 18 18 17 16 14 13 12 11 12 14 15 16 18 19 22 24 25 27 28 29 30 30 30 30
8 8 9 10 11 12 12 13 14 14 15 16 17 17 18 18 18 19 19 18 18 17 16 14 13 11 10 11 12 14 16 17 19 20 23 25 27 28 28 29 30 30 31
8 9 10 11 12 13 13 14 14 15 16 16 17 17 17 18 18 18 18 18 17 16 16 15 13 10 9 9 10 11 13 15 18 19 21 24 26 26 28 29 30 30 30

GEFSSE_500_meanwind_132.txt.gz
Wind_Speed
3 3 4 5 5 6 7 7 7 7 7 7 7 7 7 8 8 9 9 10 10 11 11 12 12 12 11 11 11 11 10 9 8 8 7 6 6 6 5 4 3 3 2
3 4 5 5 6 7 7 7 7 7 7 8 8 8 8 9 9 10 11 11 12 12 12 13 13 13 12 12 12 12 11 11 10 9 8 8 7 7 6 5 5 4 3
5 5 6 6 6 7 7 8 8 8 8 8 8 9 9 10 11 11 12 12 12 12 13 13 14 14 14 13 13 13 13 13 12 10 9 9 8 8 7 6 6 5 4
6 6 6 7 7 8 8 8 8 8 8 9 9 9 10 11 12 12 12 12 12 13 13 14 14 15 15 15 15 14 14 15 14 12 11 10 10 9 8 8 7 6 5
6 6 7 7 8 8 8 8 8 8 9 10 10 11 11 12 12 12 12 13 13 14 14 15 15 15 15 15 15 15 15 16 16 14 13 12 11 10 9 9 8 7 6
5 6 7 7 7 7 8 8 8 8 9 10 11 11 12 12 12 13 13 14 14 15 15 15 16 15 15 15 15 15 15 16 17 16 15 14 12 12 11 10 10 8 7
5 6 7 7 7 7 7 8 8 9 10 11 11 12 12 12 12 13 13 14 15 15 15 15 15 16 16 16 15 16 16 17 17 18 17 16 14 13 12 11 11 9 9
6 6 7 6 6 7 7 8 9 10 10 11 12 12 12 13 13 14 15 15 15 15 15 16 15 15 16 16 16 16 17 18 18 18 17 16 15 15 14 13 12 10 9
6 6 6 5 6 7 7 8 9 10 11 11 12 13 13 14 14 15 15 16 16 16 16 15 15 15 16 16 17 18 18 19 19 19 18 17 16 16 15 13 12 11 10
7 6 5 5 6 7 8 9 10 10 11 12 12 13 13 14 14 15 16 15 15 15 16 15 15 15 15 16 17 18 18 19 19 19 18 18 18 16 15 14 13 12 11
7 6 5 6 6 7 8 10 10 11 11 12 13 13 14 14 15 15 16 16 16 16 16 16 16 16 16 16 16 17 18 19 19 19 19 19 19 18 16 15 14 13 13
6 6 5 6 7 8 9 10 10 11 12 12 13 13 14 15 15 16 17 17 17 17 17 17 17 17 17 17 17 17 17 18 19 19 19 20 20 20 18 17 15 14 13
6 6 6 7 8 9 9 10 11 11 12 13 14 14 15 16 16 17 17 17 18 18 18 18 17 17 17 18 18 18 18 19 19 20 19 20 20 20 19 18 16 15 14
6 6 6 7 8 8 9 10 11 12 13 14 14 15 15 16 17 17 18 18 18 18 18 18 17 17 17 18 18 18 19 19 19 20 20 20 20 20 20 19 18 16 15
6 6 6 7 7 8 9 11 12 13 13 14 15 15 16 17 18 19 19 19 19 19 19 18 18 17 17 17 18 19 19 20 20 20 20 21 21 21 21 20 19 18 16
6 6 6 7 8 8 10 11 12 13 13 15 15 16 17 18 18 19 20 20 20 20 19 18 18 18 18 18 18 18 19 20 20 20 21 21 21 22 22 21 20 19 18
6 6 6 7 8 9 10 11 12 13 14 15 15 16 17 18 19 19 20 20 20 20 19 18 18 18 18 18 18 17 18 19 20 20 21 22 22 23 23 22 21 21 20
6 6 6 7 8 9 10 11 12 13 14 15 16 16 17 18 19 20 20 20 20 20 19 18 17 17 17 16 17 17 17 19 19 21 22 22 23 23 24 23 22 21 22
6 6 7 7 8 9 10 11 13 14 15 16 16 17 18 19 20 20 20 20 20 20 19 18 17 17 16 15 15 15 16 17 19 20 21 23 24 24 24 24 23 22 22
6 7 7 7 8 10 11 12 14 14 15 16 17 18 18 19 20 20 20 20 20 20 19 18 18 17 16 15 14 14 14 15 17 19 20 22 24 24 24 24 24 24 23
6 7 7 8 9 10 12 13 15 15 16 16 17 18 19 19 20 20 20 21 20 20 19 19 18 17 16 15 14 14 14 14 15 17 19 21 24 25 25 25 25 24 23
5 6 7 9 10 11 13 14 15 16 16 16 17 18 19 19 20 20 21 21 21 20 20 19 18 17 16 15 14 13 13 14 15 16 18 20 23 24 26 26 26 26 25
5 6 7 8 10 12 13 14 15 16 16 17 17 18 19 20 20 20 21 21 21 20 20 19 18 17 16 14 13 12 12 13 14 15 16 19 21 22 24 26 26 27 26
5 7 8 10 11 12 14 15 15 16 16 17 17 18 19 19 20 20 21 21 21 21 20 19 18 17 16 14 13 12 12 12 13 14 16 18 20 22 24 25 26 26 27
6 8 9 11 12 14 15 15 16 17 17 18 18 19 19 19 20 20 20 21 21 21 20 20 19 18 16 14 13 12 11 11 12 13 15 17 19 22 23 24 25 27 27
7 9 10 11 13 14 15 16 17 17 18 18 19 19 19 19 20 20 20 20 20 20 20 20 18 17 15 13 12 12 11 11 11 12 14 16 18 20 22 23 25 26 27